KLM59T TJSJ-TNCM

Flight info

Callsign KLM59T
Flight time 0h 53m
Altitude 19000
Route JETSS1 JETSS Y290 SLUGO ULUBA1
Aircraft A20N/M-SDE2E3FGHIRWXY/LB1

Departure

Time 2026-05-04 23:02
Airport Luis Munoz Marin International Airport (TJSJ)

Arrival

Time 2026-05-04 23:55
Airport Princess Juliana International Airport (TNCM)
Time Latitude Longitude Altitude Speed Heading
2026-05-04 22:47 18.43625 -66.00245 19 ft 0 kts
2026-05-04 22:50 18.43624 -66.00245 19 ft 0 kts 18°
2026-05-04 22:51 18.43608 -66.00248 20 ft 2 kts 12°
2026-05-04 22:51 18.43592 -66.00252 21 ft 2 kts 12°
2026-05-04 22:52 18.43576 -66.00255 19 ft 2 kts 13°
2026-05-04 22:52 18.43560 -66.00260 19 ft 2 kts 18°
2026-05-04 22:52 18.43545 -66.00268 21 ft 2 kts 64°
2026-05-04 22:52 18.43543 -66.00275 20 ft 0 kts 81°
2026-05-04 22:53 18.43543 -66.00274 19 ft 0 kts 81°
2026-05-04 22:53 18.43543 -66.00273 19 ft 0 kts 81°
2026-05-04 22:56 18.43544 -66.00267 19 ft 3 kts 81°
2026-05-04 22:57 18.43550 -66.00212 19 ft 12 kts 85°
2026-05-04 22:57 18.43551 -66.00100 18 ft 18 kts 88°
2026-05-04 22:57 18.43603 -65.99996 18 ft 20 kts 13°
2026-05-04 22:57 18.43765 -66.00014 18 ft 28 kts 338°
2026-05-04 22:58 18.43957 -66.00099 18 ft 31 kts 336°
2026-05-04 22:58 18.44124 -66.00171 18 ft 6 kts 340°
2026-05-04 22:58 18.44186 -66.00205 19 ft 15 kts 323°
2026-05-04 22:58 18.44250 -66.00277 19 ft 9 kts 264°
2026-05-04 22:59 18.44213 -66.00361 19 ft 17 kts 242°
2026-05-04 22:59 18.44144 -66.00525 19 ft 36 kts 244°
2026-05-04 22:59 18.44031 -66.00773 21 ft 39 kts 243°
2026-05-04 22:59 18.43909 -66.01024 19 ft 36 kts 249°
2026-05-04 23:00 18.43817 -66.01272 19 ft 34 kts 242°
2026-05-04 23:00 18.43799 -66.01430 18 ft 13 kts 301°
2026-05-04 23:00 18.43884 -66.01456 17 ft 13 kts 24°
2026-05-04 23:00 18.43896 -66.01439 17 ft 0 kts 70°
2026-05-04 23:01 18.43952 -66.01294 19 ft 62 kts 68°
2026-05-04 23:01 18.44224 -66.00618 21 ft 134 kts 66°
2026-05-04 23:02 18.44655 -65.99594 378 ft 163 kts 69°
2026-05-04 23:02 18.45143 -65.98433 883 ft 184 kts 69°
2026-05-04 23:02 18.45698 -65.97123 1441 ft 211 kts 70°
2026-05-04 23:02 18.46249 -65.95635 2256 ft 221 kts 73°
2026-05-04 23:03 18.46753 -65.94104 3327 ft 222 kts 74°
2026-05-04 23:03 18.47270 -65.92545 4238 ft 231 kts 74°
2026-05-04 23:03 18.47828 -65.90917 5096 ft 243 kts 73°
2026-05-04 23:03 18.48458 -65.89119 5288 ft 274 kts 72°
2026-05-04 23:04 18.49119 -65.87287 5390 ft 263 kts 72°
2026-05-04 23:04 18.49819 -65.85353 5518 ft 302 kts 71°
2026-05-04 23:04 18.50607 -65.83161 5642 ft 337 kts 71°
2026-05-04 23:04 18.51450 -65.80826 5748 ft 340 kts 72°
2026-05-04 23:05 18.52287 -65.78505 5854 ft 337 kts 71°
2026-05-04 23:05 18.53114 -65.76217 5958 ft 331 kts 71°
2026-05-04 23:05 18.53916 -65.74004 6002 ft 324 kts 71°
2026-05-04 23:05 18.54715 -65.71798 6003 ft 320 kts 71°
2026-05-04 23:06 18.55503 -65.69617 5948 ft 317 kts 72°
2026-05-04 23:06 18.56285 -65.67447 5849 ft 316 kts 71°
2026-05-04 23:06 18.57064 -65.65279 5748 ft 316 kts 72°
2026-05-04 23:06 18.57842 -65.63115 5679 ft 315 kts 72°
2026-05-04 23:07 18.58619 -65.60951 5557 ft 315 kts 72°
2026-05-04 23:07 18.59392 -65.58797 5483 ft 314 kts 72°
2026-05-04 23:07 18.60173 -65.56623 5575 ft 327 kts 71°
2026-05-04 23:07 18.61005 -65.54312 6044 ft 344 kts 71°
2026-05-04 23:08 18.61866 -65.51919 6700 ft 354 kts 71°
2026-05-04 23:08 18.62750 -65.49456 7321 ft 363 kts 71°
2026-05-04 23:08 18.63651 -65.46937 7973 ft 370 kts 71°
2026-05-04 23:08 18.64569 -65.44371 8628 ft 377 kts 71°
2026-05-04 23:09 18.65497 -65.41771 9294 ft 382 kts 70°
2026-05-04 23:09 18.66426 -65.39168 9964 ft 387 kts 70°
2026-05-04 23:09 18.67071 -65.36413 10587 ft 389 kts 85°
2026-05-04 23:09 18.66931 -65.33566 11226 ft 391 kts 100°
2026-05-04 23:10 18.66449 -65.30732 11871 ft 394 kts 101°
2026-05-04 23:10 18.65953 -65.27879 12527 ft 397 kts 101°
2026-05-04 23:10 18.65463 -65.25005 13198 ft 399 kts 101°
2026-05-04 23:10 18.64980 -65.22115 13873 ft 401 kts 101°
2026-05-04 23:11 18.64503 -65.19217 14483 ft 402 kts 100°
2026-05-04 23:11 18.64027 -65.16308 15104 ft 404 kts 100°
2026-05-04 23:11 18.63548 -65.13383 15738 ft 405 kts 100°
2026-05-04 23:11 18.63069 -65.10451 16385 ft 407 kts 100°
2026-05-04 23:12 18.62587 -65.07507 17045 ft 408 kts 99°
2026-05-04 23:12 18.62103 -65.04555 17716 ft 409 kts 99°
2026-05-04 23:12 18.61618 -65.01599 18385 ft 410 kts 99°
2026-05-04 23:12 18.61128 -64.98616 18559 ft 425 kts 99°
2026-05-04 23:13 18.60615 -64.95494 18662 ft 440 kts 99°
2026-05-04 23:13 18.60083 -64.92272 18764 ft 453 kts 99°
2026-05-04 23:13 18.59536 -64.88958 18862 ft 464 kts 99°
2026-05-04 23:13 18.58974 -64.85560 18962 ft 475 kts 99°
2026-05-04 23:14 18.58401 -64.82099 19040 ft 485 kts 100°
2026-05-04 23:14 18.57826 -64.78636 19042 ft 470 kts 100°
2026-05-04 23:14 18.57264 -64.75301 19043 ft 452 kts 101°
2026-05-04 23:14 18.56698 -64.72005 19041 ft 457 kts 101°
2026-05-04 23:15 18.56149 -64.68772 19039 ft 436 kts 100°
2026-05-04 23:15 18.55644 -64.65755 19050 ft 414 kts 100°
2026-05-04 23:15 18.55160 -64.62828 19053 ft 402 kts 100°
2026-05-04 23:15 18.54677 -64.59890 18927 ft 411 kts 100°
2026-05-04 23:16 18.54184 -64.56912 18725 ft 412 kts 100°
2026-05-04 23:16 18.53696 -64.53966 18981 ft 406 kts 100°
2026-05-04 23:16 18.53207 -64.51025 19046 ft 408 kts 100°
2026-05-04 23:16 18.52717 -64.48084 19045 ft 407 kts 100°
2026-05-04 23:17 18.52229 -64.45150 19044 ft 407 kts 100°
2026-05-04 23:17 18.51738 -64.42210 19042 ft 407 kts 100°
2026-05-04 23:17 18.51248 -64.39273 19039 ft 407 kts 100°
2026-05-04 23:17 18.50756 -64.36335 19040 ft 408 kts 100°
2026-05-04 23:18 18.50265 -64.33398 19039 ft 406 kts 100°
2026-05-04 23:18 18.49773 -64.30463 19038 ft 407 kts 100°
2026-05-04 23:18 18.49280 -64.27528 19037 ft 408 kts 100°
2026-05-04 23:18 18.48787 -64.24593 19035 ft 406 kts 100°
2026-05-04 23:19 18.48295 -64.21668 19038 ft 406 kts 100°
2026-05-04 23:19 18.47800 -64.18731 19038 ft 407 kts 100°
2026-05-04 23:19 18.47304 -64.15791 19037 ft 407 kts 100°
2026-05-04 23:19 18.46810 -64.12865 19037 ft 406 kts 100°
2026-05-04 23:20 18.46315 -64.09937 19024 ft 405 kts 100°
2026-05-04 23:20 18.45819 -64.07006 18833 ft 407 kts 100°
2026-05-04 23:20 18.45322 -64.04074 18487 ft 406 kts 100°
2026-05-04 23:20 18.44827 -64.01156 18102 ft 404 kts 100°
2026-05-04 23:21 18.44335 -63.98261 17697 ft 400 kts 100°
2026-05-04 23:21 18.43846 -63.95380 17142 ft 399 kts 100°
2026-05-04 23:21 18.43361 -63.92523 16548 ft 395 kts 100°
2026-05-04 23:21 18.42884 -63.89719 16037 ft 391 kts 100°
2026-05-04 23:22 18.42402 -63.86889 15553 ft 385 kts 100°
2026-05-04 23:22 18.41938 -63.84169 15088 ft 379 kts 100°
2026-05-04 23:22 18.41476 -63.81456 14632 ft 373 kts 100°
2026-05-04 23:22 18.41020 -63.78782 14177 ft 368 kts 101°
2026-05-04 23:23 18.40569 -63.76147 13712 ft 363 kts 101°
2026-05-04 23:23 18.40125 -63.73553 13198 ft 358 kts 101°
2026-05-04 23:23 18.39684 -63.70978 12698 ft 356 kts 101°
2026-05-04 23:23 18.39157 -63.68440 12195 ft 353 kts 109°
2026-05-04 23:24 18.38096 -63.66130 11636 ft 351 kts 124°
2026-05-04 23:24 18.36503 -63.64241 11409 ft 342 kts 137°
2026-05-04 23:24 18.34741 -63.62514 11273 ft 349 kts 137°
2026-05-04 23:24 18.32978 -63.60763 11159 ft 348 kts 137°
2026-05-04 23:25 18.31230 -63.59021 10938 ft 345 kts 137°
2026-05-04 23:25 18.29494 -63.57292 10516 ft 343 kts 137°
2026-05-04 23:25 18.27782 -63.55590 10297 ft 331 kts 137°
2026-05-04 23:25 18.26138 -63.53957 10104 ft 320 kts 137°
2026-05-04 23:26 18.24533 -63.52365 9596 ft 313 kts 137°
2026-05-04 23:26 18.22965 -63.50811 9009 ft 307 kts 137°
2026-05-04 23:26 18.21418 -63.49278 8390 ft 303 kts 136°
2026-05-04 23:26 18.19900 -63.47775 7789 ft 298 kts 136°
2026-05-04 23:27 18.18401 -63.46291 7196 ft 293 kts 136°
2026-05-04 23:27 18.16926 -63.44831 6617 ft 289 kts 136°
2026-05-04 23:27 18.15474 -63.43392 6014 ft 285 kts 136°
2026-05-04 23:27 18.14031 -63.41963 5429 ft 287 kts 136°
2026-05-04 23:28 18.12567 -63.40515 4885 ft 289 kts 136°
2026-05-04 23:28 18.11107 -63.39070 4398 ft 288 kts 136°
2026-05-04 23:28 18.09653 -63.37630 3909 ft 286 kts 136°
2026-05-04 23:28 18.08207 -63.36199 3428 ft 285 kts 136°
2026-05-04 23:29 18.06766 -63.34773 2954 ft 283 kts 137°
2026-05-04 23:29 18.05362 -63.33383 2776 ft 271 kts 137°
2026-05-04 23:29 18.04019 -63.32055 2654 ft 259 kts 137°
2026-05-04 23:29 18.02738 -63.30790 2594 ft 245 kts 137°
2026-05-04 23:30 18.01693 -63.29459 2589 ft 231 kts 116°
2026-05-04 23:30 18.01441 -63.27849 2549 ft 223 kts 85°
2026-05-04 23:30 18.01620 -63.26802 2503 ft 216 kts 81°
2026-05-04 23:30 18.01921 -63.25301 2426 ft 205 kts 82°
2026-05-04 23:31 18.02192 -63.23876 2348 ft 194 kts 83°
2026-05-04 23:31 18.02422 -63.22519 2239 ft 185 kts 84°
2026-05-04 23:31 18.02627 -63.21217 2073 ft 176 kts 85°
2026-05-04 23:31 18.02807 -63.19967 1870 ft 169 kts 85°
2026-05-04 23:32 18.02978 -63.18784 1737 ft 160 kts 86°
2026-05-04 23:32 18.03138 -63.17633 1459 ft 162 kts 85°
2026-05-04 23:32 18.03268 -63.16465 1175 ft 161 kts 85°
2026-05-04 23:32 18.03472 -63.15318 910 ft 158 kts 83°
2026-05-04 23:33 18.03624 -63.14213 718 ft 145 kts 86°
2026-05-04 23:33 18.03770 -63.13213 509 ft 134 kts 84°
2026-05-04 23:33 18.03895 -63.12265 193 ft 129 kts 83°
2026-05-04 23:33 18.04026 -63.11347 115 ft 134 kts 84°
2026-05-04 23:34 18.04091 -63.10319 615 ft 146 kts 101°
2026-05-04 23:34 18.03614 -63.09353 1010 ft 160 kts 133°
2026-05-04 23:34 18.02717 -63.08510 1428 ft 185 kts 138°
2026-05-04 23:34 18.01694 -63.07567 1993 ft 203 kts 137°
2026-05-04 23:35 18.00643 -63.06590 2762 ft 198 kts 137°
2026-05-04 23:35 17.99551 -63.05701 3267 ft 204 kts 153°
2026-05-04 23:35 17.98143 -63.05467 3452 ft 211 kts 186°
2026-05-04 23:35 17.96758 -63.06058 3493 ft 221 kts 213°
2026-05-04 23:36 17.95818 -63.07336 3503 ft 227 kts 243°
2026-05-04 23:36 17.95224 -63.08883 3498 ft 230 kts 245°
2026-05-04 23:36 17.94769 -63.10491 3501 ft 231 kts 256°
2026-05-04 23:36 17.94484 -63.12151 3499 ft 231 kts 257°
2026-05-04 23:37 17.94214 -63.13810 3498 ft 231 kts 257°
2026-05-04 23:37 17.93949 -63.15444 3444 ft 228 kts 257°
2026-05-04 23:37 17.93668 -63.17117 3501 ft 243 kts 257°
2026-05-04 23:37 17.93369 -63.18983 3497 ft 266 kts 257°
2026-05-04 23:38 17.93061 -63.20871 3495 ft 266 kts 257°
2026-05-04 23:38 17.92745 -63.22767 3493 ft 263 kts 257°
2026-05-04 23:38 17.92420 -63.24683 3491 ft 270 kts 257°
2026-05-04 23:38 17.92086 -63.26645 3604 ft 276 kts 257°
2026-05-04 23:39 17.91726 -63.28618 3468 ft 274 kts 257°
2026-05-04 23:39 17.91370 -63.30569 3444 ft 273 kts 257°
2026-05-04 23:39 17.91025 -63.32563 3444 ft 280 kts 258°
2026-05-04 23:39 17.91081 -63.34592 3349 ft 280 kts 284°
2026-05-04 23:40 17.91968 -63.36386 3062 ft 280 kts 311°
2026-05-04 23:40 17.93523 -63.37583 2658 ft 278 kts 340°
2026-05-04 23:40 17.95394 -63.37897 2326 ft 270 kts
2026-05-04 23:40 17.97109 -63.37264 2200 ft 262 kts 37°
2026-05-04 23:41 17.98380 -63.35912 2186 ft 259 kts 61°
2026-05-04 23:41 17.99159 -63.34265 2182 ft 244 kts 67°
2026-05-04 23:41 17.99881 -63.32698 2082 ft 233 kts 67°
2026-05-04 23:41 18.00585 -63.31206 1965 ft 225 kts 66°
2026-05-04 23:42 18.01243 -63.29731 1800 ft 219 kts 73°
2026-05-04 23:42 18.01616 -63.28169 1799 ft 223 kts 84°
2026-05-04 23:42 18.01833 -63.26568 1792 ft 219 kts 85°
2026-05-04 23:42 18.02055 -63.25020 1791 ft 209 kts 84°
2026-05-04 23:43 18.02272 -63.23513 1798 ft 210 kts 84°
2026-05-04 23:43 18.02494 -63.22013 1787 ft 205 kts 85°
2026-05-04 23:43 18.02708 -63.20522 1707 ft 210 kts 84°
2026-05-04 23:43 18.02924 -63.19039 1689 ft 199 kts 85°
2026-05-04 23:44 18.03130 -63.17605 1427 ft 198 kts 83°
2026-05-04 23:44 18.03367 -63.16104 1173 ft 221 kts 83°
2026-05-04 23:44 18.03595 -63.14616 954 ft 198 kts 85°
2026-05-04 23:44 18.03760 -63.13225 547 ft 186 kts 84°
2026-05-04 23:45 18.03957 -63.11915 589 ft 182 kts 83°
2026-05-04 23:45 18.04110 -63.10557 1250 ft 193 kts 92°
2026-05-04 23:45 18.03790 -63.09204 2215 ft 189 kts 125°
2026-05-04 23:45 18.02739 -63.08337 2975 ft 205 kts 154°
2026-05-04 23:46 18.01345 -63.08043 3009 ft 206 kts 184°
2026-05-04 23:46 18.00018 -63.08650 3003 ft 217 kts 217°
2026-05-04 23:46 17.98908 -63.09746 2995 ft 220 kts 220°
2026-05-04 23:46 17.97826 -63.10868 3000 ft 218 kts 220°
2026-05-04 23:47 17.96764 -63.11963 2997 ft 220 kts 220°
2026-05-04 23:47 17.95839 -63.13237 3006 ft 224 kts 243°
2026-05-04 23:47 17.95305 -63.14776 2997 ft 225 kts 248°
2026-05-04 23:47 17.94820 -63.16342 3003 ft 225 kts 248°
2026-05-04 23:48 17.94338 -63.17899 2994 ft 224 kts 248°
2026-05-04 23:48 17.93857 -63.19455 2998 ft 223 kts 248°
2026-05-04 23:48 17.93499 -63.21045 2998 ft 227 kts 262°
2026-05-04 23:48 17.93411 -63.22706 2996 ft 225 kts 264°
2026-05-04 23:49 17.93340 -63.24343 2992 ft 225 kts 264°
2026-05-04 23:49 17.93262 -63.26004 2995 ft 230 kts 264°
2026-05-04 23:49 17.93236 -63.27673 2982 ft 228 kts 277°
2026-05-04 23:49 17.93864 -63.29171 2918 ft 227 kts 311°
2026-05-04 23:50 17.95149 -63.30091 2668 ft 225 kts 346°
2026-05-04 23:50 17.96709 -63.30147 2607 ft 225 kts 11°
2026-05-04 23:50 17.98257 -63.29922 2589 ft 225 kts 11°
2026-05-04 23:50 17.99814 -63.29674 2585 ft 224 kts 19°
2026-05-04 23:51 18.01124 -63.28902 2438 ft 214 kts 52°
2026-05-04 23:51 18.01766 -63.27558 2150 ft 205 kts 84°
2026-05-04 23:51 18.01960 -63.26077 1859 ft 204 kts 86°
2026-05-04 23:51 18.02136 -63.24638 1729 ft 193 kts 85°
2026-05-04 23:52 18.02315 -63.23287 1692 ft 183 kts 86°
2026-05-04 23:52 18.02499 -63.21984 1695 ft 174 kts 85°
2026-05-04 23:52 18.02672 -63.20772 1702 ft 165 kts 85°
2026-05-04 23:52 18.02839 -63.19636 1683 ft 152 kts 86°
2026-05-04 23:53 18.02992 -63.18591 1521 ft 139 kts 85°
2026-05-04 23:53 18.03132 -63.17610 1348 ft 137 kts 84°
2026-05-04 23:53 18.03288 -63.16635 1242 ft 137 kts 85°
2026-05-04 23:53 18.03449 -63.15648 1144 ft 137 kts 86°
2026-05-04 23:54 18.03555 -63.14682 992 ft 128 kts 88°
2026-05-04 23:54 18.03677 -63.13765 709 ft 128 kts 84°
2026-05-04 23:54 18.03822 -63.12847 341 ft 127 kts 85°
2026-05-04 23:54 18.03948 -63.11940 68 ft 122 kts 85°
2026-05-04 23:55 18.04055 -63.11136 28 ft 86 kts 82°
2026-05-04 23:55 18.04106 -63.10788 27 ft 38 kts 82°
2026-05-04 23:55 18.04153 -63.10516 27 ft 7 kts 285°
2026-05-04 23:56 18.04120 -63.10708 27 ft 52 kts 260°
2026-05-04 23:56 18.04108 -63.10982 27 ft 11 kts 326°
2026-05-04 23:56 18.04165 -63.11040 28 ft 13 kts 271°
2026-05-04 23:56 18.04159 -63.11098 28 ft 0 kts 259°
2026-05-05 00:00 18.04120 -63.10511 27 ft 10 kts 56°
2026-05-05 00:00 18.03898 -63.12266 146 ft 126 kts 83°
2026-05-05 00:01 18.03865 -63.12474 224 ft 125 kts 84°
2026-05-05 00:01 18.03994 -63.11589 34 ft 116 kts 85°
2026-05-05 00:01 18.04086 -63.10937 27 ft 50 kts 78°
2026-05-05 00:01 18.03849 -63.12602 268 ft 125 kts 85°
2026-05-05 00:02 18.03920 -63.12130 104 ft 125 kts 84°
2026-05-05 00:02 18.04035 -63.11280 28 ft 105 kts 81°
2026-05-05 00:02 18.03923 -63.12113 101 ft 125 kts 84°
2026-05-05 00:02 18.04037 -63.11266 28 ft 103 kts 82°
2026-05-05 00:03 18.03806 -63.12983 380 ft 127 kts 85°
2026-05-05 00:03 18.03929 -63.12072 90 ft 125 kts 84°
2026-05-05 00:03 18.04042 -63.11234 28 ft 99 kts 82°
2026-05-05 00:03 18.03565 -63.14570 967 ft 137 kts 88°
2026-05-05 00:05 18.03678 -63.13762 710 ft 128 kts 84°
2026-05-05 00:05 18.03823 -63.12844 333 ft 127 kts 85°
2026-05-05 00:05 18.03948 -63.11940 68 ft 123 kts 85°
2026-05-05 00:06 18.04055 -63.11134 28 ft 86 kts 82°
2026-05-05 00:06 18.03779 -63.13181 462 ft 131 kts 84°
2026-05-05 00:06 18.03652 -63.13905 753 ft 168 kts 83°
2026-05-05 00:06 18.03732 -63.13467 595 ft 128 kts 84°
2026-05-05 00:07 18.03856 -63.12550 251 ft 125 kts 85°
2026-05-05 00:07 18.03984 -63.11659 37 ft 117 kts 85°
2026-05-05 00:07 18.04080 -63.10968 28 ft 57 kts 78°
2026-05-05 00:07 18.03862 -63.12503 237 ft 125 kts 85°
2026-05-05 00:08 18.03990 -63.11617 35 ft 117 kts 85°